Regional Weather Roundup
Issued by NWS

Home | Current Version | Previous Version | Graphics & Text | Print | Product List | Glossary On
Versions: 1 2 3 4 5 6 7 8 9 10 11 12 13 14 15 16 17 18 19 20 21 22 23 24 25 26 27 28 29 30 31 32 33 34 35 36 37 38 39 40 41 42 43 44 45 46 47 48 49 50
000
ASUS43 KFSD 241602
RWRSD

WEATHER ROUNDUP FOR SOUTH DAKOTA
NATIONAL WEATHER SERVICE SIOUX FALLS SD
1000 AM CST FRI NOV 24 2017

NOTE: "FAIR" INDICATES FEW OR NO CLOUDS BELOW 12,000 FEET WITH NO
SIGNIFICANT WEATHER AND/OR OBSTRUCTIONS TO VISIBILITY.


SDZ001>005-009-010-012>017-241700-
NORTHWEST AND NORTH CENTRAL SOUTH DAKOTA

CITY           SKY/WX    TMP DP  RH WIND       PRES   REMARKS
FAITH            N/A     49  38  65 NW32G46   29.67R
MOBRIDGE       PTSUNNY   53  42  66 NW24G36   29.53R
$$

SDZ012>016-024>037-041>051-057-063-072>074-241700-
SOUTHWEST AND SOUTH CENTRAL SOUTH DAKOTA

CITY           SKY/WX    TMP DP  RH WIND       PRES   REMARKS
RAPID CTY ARPT CLOUDY    50  36  58 NW23G36   29.73R
PIERRE         CLOUDY    53  40  61 W7        29.58S
CUSTER         PTSUNNY   40  29  64 NW13G22   29.79R
ELLSWORTH AFB  CLOUDY    49  37  62 NW18G26   29.74
PHILIP         CLOUDY    54  42  64 NW21G29   29.68R
PINE RIDGE     PTSUNNY   54  39  57 N8G18     29.76R
SPEARFISH      MIX PCPN  41  37  87 W16G31    29.82R
WINNER         FAIR      59  39  47 NW21G31   29.65R
$$

SDZ004>011-016>023-039-040-241700-
NORTHEAST SOUTH DAKOTA

CITY           SKY/WX    TMP DP  RH WIND       PRES   REMARKS
ABERDEEN       CLOUDY    49  43  80 SW8       29.46S
WATERTOWN      MOSUNNY   51  40  65 NW20      29.48R
BROOKINGS      CLOUDY    46  38  73 NW9       29.47R
SISSETON         N/A     53  45  74 W13G22    29.39R
$$

SDZ017-020-022-023-036>040-048>070-241700-
SOUTHEAST SOUTH DAKOTA

CITY           SKY/WX    TMP DP  RH WIND       PRES   REMARKS
SIOUX FALLS    MOSUNNY   53  42  66 W3        29.44S
HURON          CLOUDY    53  39  59 NW15      29.53R
CHAMBERLAIN    PTSUNNY   57  41  54 NW18G33   29.60R
MITCHELL       MOSUNNY   54  40  59 NW17      29.52R
YANKTON        SUNNY     57  40  52 W16       29.46R
$$

ABBREVIATIONS USED IN REMARKS
   TC - TEMPERATURE IN CELSIUS
  WCI - WIND CHILL INDEX
   HX - HEAT INDEX
  VSB - VISIBILITY





USA.gov is the U.S. government's official web portal to all federal, state and local government web resources and services.